Location: Casilda
(33.0440°S, 61.1680°W)
Time: 20:12:31
(UTC-03:00)

ISS - Pass Details

Date: 10 April 2026
Orbit: 416 x 425 km, 51.6° (Epoch: 18 April)

Event Time Altitude Azimuth Distance (km) Brightness Sun altitude
Rises 21:16:56 0° 274° (W) 2,377 1.1 -31.8°
Reaches altitude 10° 21:19:41 10° 250° (WSW) 1,516 -0.1 -32.4°
Enters shadow 21:19:51 11° 248° (WSW) 1,477 -0.2 -32.4°
